Location: ?????
(31.8092°N, 35.2590°E)
Time: 23:38:58
(UTC+00:00)

FALCON 9 DEB - Visible Passes

Search period start: 23 October 2021 00:00
Search period end: 02 November 2021 00:00
Orbit: 353 x 363 km, 53.0° (Epoch: 23 October)

Date Brightness Start Highest point End Pass type
(mag) Time Alt. Az. Time Alt. Az. Time Alt. Az.
23 Oct 2.6 16:17:00 10° SW 16:19:54 73° SE 16:19:54 73° SE visible
24 Oct 5.2 16:46:01 10° W 16:47:59 21° NW 16:47:59 21° NW visible
25 Oct 2.7 15:38:27 10° SW 15:41:24 84° NW 15:44:07 12° NE visible
26 Oct 5.2 16:07:38 10° W 16:09:48 18° NW 16:11:48 11° N visible
28 Oct 5.4 15:29:05 10° WNW 15:30:58 15° NW 15:32:51 10° N visible
